Location: Grantsboro
(35.1404°N, 76.8424°W)
Time: 09:52:46
(UTC+00:00)

Cosmos 1626 - Pass Details

Date: 18 January 2020
Orbit: 493 x 495 km, 82.5° (Epoch: 18 February)

Event Time Altitude Azimuth Distance (km) Brightness Sun altitude
Exits shadow 10:04:34 40° 76° (ENE) 740 3.3 -26.3°
Maximum altitude 10:04:40 40° 80° (E) 739 3.3 -26.2°
Drops below altitude 10° 10:08:09 10° 152° (SSE) 1,684 5.2 -25.5°
Sets 10:10:20 0° 159° (SSE) 2,562 6.1 -25.1°
